Valladolid Airport, Spain

11:52 AM CEST on June 26, 2017 (GMT +0200)
Villanubla

Weather History for LEVD - September, 2013

Change the Weather History Date:

Friday, September 20, 2013

  Actual Average Record
Temperature  
Mean Temperature 64 °F -  
Max Temperature 77 °F - - ()
Min Temperature 50 °F - - ()
Degree Days  
Heating Degree Days 2    
Growing Degree Days 14 (Base 50)    
Moisture  
Dew Point 51 °F    
Average Humidity 60    
Maximum Humidity 100    
Minimum Humidity 34    
Precipitation  
Precipitation 0.00 in - - ()
Sea Level Pressure  
Sea Level Pressure 30.19 in    
Wind  
Wind Speed 6 mph ()    
Max Wind Speed 13 mph    
Max Gust Speed -    
T = Trace of Precipitation, MM = Missing Value Source: Averaged Metar Reports

Daily Weather History Graph

Daily Weather History Graph

Search for Another Location

Airport or City:

Trip Planner

Search our weather history database for the weather conditions in past years. The results will help you decide how hot, cold, wet, or windy it might be!

Date:

Astronomy

Sep. 20, 2013 Rise Set
Actual Time 8:04 AM CEST 8:20 PM CEST
Civil Twilight 7:36 AM CEST 8:47 PM CEST
Nautical Twilight 7:04 AM CEST 9:20 PM CEST
Astronomical Twilight 6:30 AM CEST 9:53 PM CEST
Moon 8:43 PM CEST (9/20) 9:05 AM CEST (9/20)
Length of Visible Light 13h 10m
Length of Day
12h 15m
Full, 99% of the Moon is Illuminated
Sep 20
Full
Sep 27
Last Quarter
Oct 5
New
Oct 12
First Quarter
Oct 19
Full

Hourly Weather History & Observations

Time (CEST) Temp. Dew Point Humidity Pressure Visibility Wind Dir Wind Speed Gust Speed Precip Events Conditions
7:00 AM 50.0 °F 50.0 °F 100% 30.15 in - ENE 3.5 mph - N/A   Clear
7:30 AM 50.0 °F 50.0 °F 100% 30.18 in - NE 3.5 mph - N/A   Clear
8:00 AM 50.0 °F 50.0 °F 100% 30.18 in - NNE 2.3 mph - N/A   Clear
8:30 AM 50.0 °F 48.2 °F 94% 30.18 in - Variable 1.2 mph - N/A   Clear
9:00 AM 51.8 °F 50.0 °F 94% 30.18 in - NE 4.6 mph - N/A   Clear
9:30 AM 55.4 °F 53.6 °F 94% 30.21 in - ENE 8.1 mph - N/A   Clear
10:00 AM 57.2 °F 53.6 °F 88% 30.21 in - ENE 9.2 mph - N/A   Clear
10:30 AM 60.8 °F 53.6 °F 77% 30.21 in - ENE 11.5 mph - N/A   Clear
11:00 AM 62.6 °F 53.6 °F 72% 30.21 in - ENE 12.7 mph - N/A   Clear
11:30 AM 64.4 °F 53.6 °F 68% 30.21 in - ENE 9.2 mph - N/A   Clear
12:00 PM 66.2 °F 53.6 °F 64% 30.21 in - East 11.5 mph - N/A   Clear
12:30 PM 66.2 °F 51.8 °F 60% 30.21 in - East 12.7 mph - N/A   Clear
1:00 PM 69.8 °F 51.8 °F 53% 30.21 in - East 10.4 mph - N/A   Clear
1:30 PM 69.8 °F 51.8 °F 53% 30.21 in - ENE 11.5 mph - N/A   Clear
2:00 PM 71.6 °F 53.6 °F 53% 30.21 in - ENE 5.8 mph - N/A   Clear
2:30 PM 71.6 °F 51.8 °F 50% 30.21 in - ENE 8.1 mph - N/A   Clear
3:00 PM 75.2 °F 48.2 °F 38% 30.21 in - ENE 8.1 mph - N/A   Clear
3:30 PM 75.2 °F 50.0 °F 41% 30.18 in - NE 8.1 mph - N/A   Clear
4:00 PM 75.2 °F 48.2 °F 38% 30.18 in - ENE 5.8 mph - N/A   Clear
4:30 PM 77.0 °F 48.2 °F 36% 30.18 in - NE 6.9 mph - N/A   Clear
5:00 PM 77.0 °F 46.4 °F 34% 30.18 in - NNE 8.1 mph - N/A   Clear
5:30 PM 77.0 °F 46.4 °F 34% 30.18 in - NE 6.9 mph - N/A   Clear
6:00 PM 77.0 °F 48.2 °F 36% 30.18 in - East 5.8 mph - N/A   Clear
6:30 PM 77.0 °F 48.2 °F 36% 30.18 in - East 4.6 mph - N/A   Clear
7:00 PM 75.2 °F 48.2 °F 38% 30.18 in - East 8.1 mph - N/A   Clear
7:30 PM 75.2 °F 48.2 °F 38% 30.18 in - East 6.9 mph - N/A   Clear
8:00 PM 73.4 °F 50.0 °F 44% 30.18 in - ENE 9.2 mph - N/A   Clear
8:30 PM 69.8 °F 51.8 °F 53% 30.18 in - ENE 8.1 mph - N/A   Clear
9:00 PM 68.0 °F 51.8 °F 56% 30.21 in - ENE 9.2 mph - N/A   Clear
9:30 PM 68.0 °F 51.8 °F 56% 30.21 in - ENE 9.2 mph - N/A   Clear